COSMOS 1275 DEB, 39968

Orbit data source: Space-Track

COSMOS 1275 DEB, 39968 is space debris in LEO originally from a launch on Thu, 04 Jun 1981 UTC launched from the Plesetsk Missile And Space Complex (PKMTR). Debris objects in space refer to the collection of defunct objects orbiting the Earth. Examples of debris include non-operational satellites, rocket bodies, and fragments generated from explosions, collisions, or faulty payload assembly.

Loading next visibility...
Identifier
39968, 1981-053PE
Orbit
LEO
Country
Flag of CISCIS
Related business
Manufacturer
Unknown
Mission
Spacecraft
Bus & Motor
Unknown
Mass
Unknown
Launch date (UTC)
1981-06-04 (45 years ago)
Launch vehicle
Unknown
Launch site
Plesetsk Missile And Space Complex (PKMTR)
Object type
Payload
Rocket body
Debris
Shape & HBR
Unknown shape, 0.1 m
Radar Cross Section
Small (<0.1 m²)

Expand to show TLE details & history
Last TLE update: 5 days ago

TLE from 5 days ago
0 COSMOS 1275 DEB
1 39968U 81053PE  26032.86618185  .00000784  00000-0  73302-3 0  9995
2 39968  83.1418  84.5604 0079470  71.6817 289.2966 13.79130133 43219
Epoch: 2026-02-01T20:47Z
TLE epoch observation values (Epoch: 2026-02-01T20:47:18.111Z)
Latitude
-0.00007°
Longitude
0.66525°
Altitude
951.006 km
Speed
7.386 km/s
True Right ascension
05h 38m 14s
True Declination
0° 00' 00"
Sunlit
Object was in full shadow at epoch
Visualization orbit readout
Latitude
Unknown
Longitude
Unknown
Altitude
Unknown
Speed
Unknown
Apparent Right ascension
Unknown
Apparent Declination
Unknown
Sunlit
N/A
Visualization observer readout
Local Sidereal Time
17:22:59
Azimuth
Unknown
Elevation
Unknown
Doppler factor
Unknown
Orbital elements
Apogee altitude
1,022.458 km
Perigee altitude
905.76 km
Semi-major axis
7,342.246 km
Eccentricity
0.00795
Inclination
83.1418°
RAAN
84.5604°
Arg. of periapsis
71.6817°
True anomaly
288.4343°
Mean anomaly
289.2966°
Eccentric anomaly
288.86573°
Mean motion
3.44985 °/min
Orbital period
104.35 mins
BSTAR
0.00073302
Loading maneuver chart data...
Computing Atmospheric mass density...
Loading historical data...
Loading historical data...
Loading historical data...
Loading historical data...
Loading historical data...
Loading historical data...
Loading historical data...

Documentation

Showing up to 5 results
|